DLH34A EDDF-LPPT

Flight info

Callsign DLH34A
Flight time 2h 45m
Altitude 37000
Route SOBRA2L/18 SOBRA Y180 DIK UN857 TOLVU DCT RAPOR DCT ESTOC DCT PON DCT DITAL DCT GODIX DCT DIDAK DCT KURIS DCT TERPO DCT ERIGA/N0443F350 DCT FUJTI/N0451F370 DCT ATLEN DCT ABUPI DCT XAMAX
Aircraft A20N/M-SDE2E3FGHIRWXY/LB1

Departure

Time 2026-05-06 19:44
Airport Frankfurt Main Airport (EDDF)

Arrival

Time 2026-05-06 22:29
Airport Lisbon Humberto Delgado Airport (LPPT)
Time Latitude Longitude Altitude Speed Heading
2026-05-06 18:50 50.03877 8.54889 363 ft 0 kts 159°
2026-05-06 19:36 50.03844 8.54908 368 ft 7 kts 159°
2026-05-06 19:36 50.03802 8.54885 369 ft 9 kts 226°
2026-05-06 19:36 50.03768 8.54775 364 ft 12 kts 249°
2026-05-06 19:36 50.03758 8.54736 368 ft 12 kts 249°
2026-05-06 19:37 50.03707 8.54522 369 ft 13 kts 249°
2026-05-06 19:37 50.03636 8.54229 366 ft 16 kts 249°
2026-05-06 19:37 50.03597 8.54066 366 ft 17 kts 249°
2026-05-06 19:38 50.03557 8.53895 368 ft 18 kts 250°
2026-05-06 19:38 50.03514 8.53713 366 ft 18 kts 250°
2026-05-06 19:38 50.03470 8.53527 370 ft 19 kts 249°
2026-05-06 19:38 50.03422 8.53331 366 ft 20 kts 249°
2026-05-06 19:39 50.03379 8.53155 369 ft 14 kts 249°
2026-05-06 19:39 50.03344 8.53013 367 ft 14 kts 249°
2026-05-06 19:39 50.03311 8.52866 368 ft 15 kts 250°
2026-05-06 19:39 50.03287 8.52765 369 ft 0 kts 249°
2026-05-06 19:41 50.03277 8.52723 366 ft 11 kts 249°
2026-05-06 19:41 50.03249 8.52622 368 ft 7 kts 229°
2026-05-06 19:41 50.03226 8.52600 368 ft 0 kts 189°
2026-05-06 19:43 50.03182 8.52597 366 ft 29 kts 179°
2026-05-06 19:43 50.02736 8.52599 368 ft 97 kts 180°
2026-05-06 19:43 50.01875 8.52607 367 ft 149 kts 179°
2026-05-06 19:43 50.00719 8.52620 590 ft 171 kts 181°
2026-05-06 19:44 49.99539 8.52669 1296 ft 169 kts 180°
2026-05-06 19:44 49.98349 8.52764 1816 ft 179 kts 179°
2026-05-06 19:44 49.97039 8.52878 2133 ft 197 kts 179°
2026-05-06 19:44 49.95611 8.52995 2442 ft 215 kts 179°
2026-05-06 19:45 49.94053 8.53103 2743 ft 235 kts 180°
2026-05-06 19:45 49.92421 8.53194 3516 ft 234 kts 180°
2026-05-06 19:45 49.90780 8.53288 3889 ft 235 kts 180°
2026-05-06 19:45 49.89160 8.53386 3976 ft 232 kts 180°
2026-05-06 19:46 49.87552 8.53405 3980 ft 230 kts 190°
2026-05-06 19:46 49.85968 8.52712 3994 ft 249 kts 202°
2026-05-06 19:46 49.84300 8.51760 4149 ft 263 kts 202°
2026-05-06 19:46 49.82588 8.50793 5093 ft 260 kts 202°
2026-05-06 19:47 49.80883 8.49834 5952 ft 262 kts 202°
2026-05-06 19:47 49.79164 8.48866 6734 ft 265 kts 202°
2026-05-06 19:47 49.77529 8.47580 7455 ft 266 kts 220°
2026-05-06 19:47 49.76340 8.45408 8182 ft 267 kts 244°
2026-05-06 19:48 49.75827 8.42644 8922 ft 271 kts 263°
2026-05-06 19:48 49.75617 8.39739 9685 ft 274 kts 263°
2026-05-06 19:48 49.75409 8.36764 10174 ft 287 kts 263°
2026-05-06 19:48 49.75183 8.33573 10350 ft 310 kts 263°
2026-05-06 19:49 49.74940 8.30195 10506 ft 331 kts 263°
2026-05-06 19:49 49.74679 8.26594 10974 ft 340 kts 263°
2026-05-06 19:49 49.74412 8.22933 11568 ft 345 kts 263°
2026-05-06 19:49 49.74131 8.19225 12166 ft 349 kts 262°
2026-05-06 19:50 49.73838 8.15475 12782 ft 354 kts 262°
2026-05-06 19:50 49.73538 8.11685 13436 ft 357 kts 262°
2026-05-06 19:50 49.73235 8.07850 14026 ft 360 kts 262°
2026-05-06 19:50 49.72932 8.03992 14579 ft 364 kts 262°
2026-05-06 19:51 49.72627 8.00100 15125 ft 367 kts 263°
2026-05-06 19:51 49.72317 7.96174 15670 ft 370 kts 263°
2026-05-06 19:51 49.72000 7.92197 16221 ft 373 kts 263°
2026-05-06 19:51 49.71680 7.88241 16743 ft 376 kts 263°
2026-05-06 19:52 49.71352 7.84207 17242 ft 380 kts 263°
2026-05-06 19:52 49.71025 7.80138 17769 ft 383 kts 263°
2026-05-06 19:52 49.70698 7.76032 18225 ft 387 kts 263°
2026-05-06 19:52 49.70364 7.71868 18602 ft 392 kts 263°
2026-05-06 19:53 49.70024 7.67672 19021 ft 395 kts 263°
2026-05-06 19:53 49.69679 7.63457 19522 ft 396 kts 263°
2026-05-06 19:53 49.69331 7.59228 19988 ft 398 kts 263°
2026-05-06 19:53 49.68981 7.54981 20434 ft 400 kts 263°
2026-05-06 19:54 49.68628 7.50709 20833 ft 403 kts 263°
2026-05-06 19:54 49.68269 7.46397 21226 ft 406 kts 262°
2026-05-06 19:54 49.67903 7.42054 21641 ft 409 kts 262°
2026-05-06 19:54 49.67533 7.37683 22045 ft 412 kts 262°
2026-05-06 19:55 49.67159 7.33283 22439 ft 414 kts 262°
2026-05-06 19:55 49.66782 7.28853 22820 ft 417 kts 262°
2026-05-06 19:55 49.66404 7.24403 23202 ft 420 kts 262°
2026-05-06 19:55 49.66022 7.19922 23577 ft 422 kts 262°
2026-05-06 19:56 49.65639 7.15491 23969 ft 422 kts 262°
2026-05-06 19:56 49.65249 7.10999 24298 ft 424 kts 262°
2026-05-06 19:56 49.64856 7.06489 24613 ft 425 kts 262°
2026-05-06 19:56 49.64459 7.01955 24922 ft 427 kts 262°
2026-05-06 19:57 49.64061 6.97400 25226 ft 429 kts 261°
2026-05-06 19:57 49.63658 6.92821 25522 ft 432 kts 262°
2026-05-06 19:57 49.63253 6.88224 25818 ft 434 kts 261°
2026-05-06 19:57 49.62843 6.83599 26114 ft 436 kts 261°
2026-05-06 19:58 49.62429 6.78963 26405 ft 438 kts 261°
2026-05-06 19:58 49.62010 6.74297 26695 ft 440 kts 261°
2026-05-06 19:58 49.61588 6.69633 27035 ft 440 kts 261°
2026-05-06 19:58 49.61164 6.64948 27345 ft 441 kts 261°
2026-05-06 19:59 49.60739 6.60260 27616 ft 443 kts 261°
2026-05-06 19:59 49.60308 6.55545 27887 ft 445 kts 261°
2026-05-06 19:59 49.59874 6.50821 28149 ft 446 kts 261°
2026-05-06 19:59 49.59432 6.46069 28402 ft 448 kts 261°
2026-05-06 20:00 49.58986 6.41312 28645 ft 450 kts 261°
2026-05-06 20:00 49.58534 6.36532 28895 ft 451 kts 261°
2026-05-06 20:00 49.58086 6.31740 29134 ft 453 kts 261°
2026-05-06 20:00 49.57635 6.26934 29449 ft 453 kts 261°
2026-05-06 20:01 49.57186 6.22190 29778 ft 453 kts 261°
2026-05-06 20:01 49.56731 6.17395 30082 ft 452 kts 260°
2026-05-06 20:01 49.56277 6.12599 30368 ft 452 kts 261°
2026-05-06 20:01 49.55824 6.07814 30652 ft 451 kts 260°
2026-05-06 20:02 49.55367 6.03035 30936 ft 451 kts 260°
2026-05-06 20:02 49.54905 5.98262 31221 ft 450 kts 260°
2026-05-06 20:02 49.54443 5.93504 31505 ft 449 kts 260°
2026-05-06 20:02 49.53980 5.88749 31794 ft 449 kts 260°
2026-05-06 20:03 49.53516 5.84007 32083 ft 448 kts 260°
2026-05-06 20:03 49.53047 5.79263 32372 ft 447 kts 260°
2026-05-06 20:03 49.52577 5.74532 32651 ft 447 kts 260°
2026-05-06 20:03 49.52105 5.69792 32938 ft 446 kts 260°
2026-05-06 20:04 49.51636 5.65065 33208 ft 446 kts 260°
2026-05-06 20:04 49.51167 5.60352 33482 ft 445 kts 260°
2026-05-06 20:04 49.50855 5.57233 33665 ft 445 kts 260°
2026-05-06 20:04 49.50382 5.52526 33940 ft 445 kts 260°
2026-05-06 20:05 49.49905 5.47825 34171 ft 444 kts 260°
2026-05-06 20:05 49.49425 5.43138 34398 ft 444 kts 260°
2026-05-06 20:05 49.48945 5.38451 34615 ft 443 kts 260°
2026-05-06 20:05 49.48468 5.33768 34823 ft 443 kts 260°
2026-05-06 20:06 49.47985 5.29075 35009 ft 444 kts 260°
2026-05-06 20:06 49.47501 5.24386 35200 ft 444 kts 260°
2026-05-06 20:06 49.47017 5.19705 35384 ft 443 kts 260°
2026-05-06 20:06 49.46530 5.15020 35577 ft 443 kts 260°
2026-05-06 20:07 49.46043 5.10346 35757 ft 443 kts 260°
2026-05-06 20:07 49.45550 5.05675 35940 ft 443 kts 260°
2026-05-06 20:07 49.45058 5.01001 36108 ft 443 kts 260°
2026-05-06 20:07 49.44562 4.96331 36277 ft 443 kts 260°
2026-05-06 20:08 49.44065 4.91669 36447 ft 442 kts 260°
2026-05-06 20:08 49.43564 4.87000 36609 ft 442 kts 260°
2026-05-06 20:08 49.43070 4.82403 36763 ft 442 kts 260°
2026-05-06 20:08 49.42570 4.77745 36905 ft 442 kts 260°
2026-05-06 20:09 49.41559 4.68413 36936 ft 443 kts 260°
2026-05-06 20:09 49.40540 4.59091 36939 ft 442 kts 260°
2026-05-06 20:10 49.39519 4.49769 36940 ft 443 kts 260°
2026-05-06 20:10 49.38497 4.40459 36946 ft 443 kts 260°
2026-05-06 20:11 49.37462 4.31145 36947 ft 443 kts 260°
2026-05-06 20:11 49.36407 4.21831 36950 ft 443 kts 259°
2026-05-06 20:12 49.35350 4.12509 36953 ft 443 kts 259°
2026-05-06 20:12 49.34286 4.03202 36958 ft 443 kts 259°
2026-05-06 20:13 49.33217 3.93899 36958 ft 443 kts 259°
2026-05-06 20:13 49.32141 3.84598 36959 ft 443 kts 259°
2026-05-06 20:14 49.31063 3.75352 36961 ft 443 kts 259°
2026-05-06 20:14 49.29973 3.66053 36969 ft 444 kts 259°
2026-05-06 20:15 49.28862 3.56758 36974 ft 444 kts 259°
2026-05-06 20:15 49.27746 3.47459 36975 ft 444 kts 259°
2026-05-06 20:16 49.26629 3.38165 36973 ft 443 kts 259°
2026-05-06 20:16 49.25510 3.28878 36970 ft 444 kts 259°
2026-05-06 20:17 49.24385 3.19590 36971 ft 444 kts 259°
2026-05-06 20:17 49.23251 3.10306 36972 ft 444 kts 259°
2026-05-06 20:18 49.22105 3.01011 36977 ft 444 kts 259°
2026-05-06 20:18 49.20950 2.91734 36976 ft 444 kts 259°
2026-05-06 20:19 49.19785 2.82477 36972 ft 443 kts 259°
2026-05-06 20:19 49.18623 2.73282 36979 ft 443 kts 259°
2026-05-06 20:20 49.17452 2.64032 36982 ft 443 kts 259°
2026-05-06 20:20 49.16271 2.54786 36983 ft 443 kts 259°
2026-05-06 20:21 49.15082 2.45554 36981 ft 443 kts 259°
2026-05-06 20:21 49.13886 2.36341 36999 ft 442 kts 259°
2026-05-06 20:22 49.12693 2.27135 36977 ft 442 kts 259°
2026-05-06 20:22 49.11500 2.17923 36979 ft 442 kts 259°
2026-05-06 20:23 49.10298 2.08776 36980 ft 442 kts 259°
2026-05-06 20:23 49.08490 1.99845 36979 ft 442 kts 245°
2026-05-06 20:24 49.05911 1.91322 36969 ft 443 kts 246°
2026-05-06 20:24 49.03344 1.82776 36975 ft 443 kts 246°
2026-05-06 20:25 49.00781 1.74234 36983 ft 443 kts 246°
2026-05-06 20:25 48.98195 1.65702 36988 ft 444 kts 246°
2026-05-06 20:26 48.95586 1.57186 36994 ft 444 kts 246°
2026-05-06 20:26 48.92987 1.48674 36995 ft 444 kts 246°
2026-05-06 20:27 48.90386 1.40163 36998 ft 444 kts 246°
2026-05-06 20:27 48.87771 1.31664 37002 ft 444 kts 245°
2026-05-06 20:28 48.85148 1.23169 37000 ft 444 kts 246°
2026-05-06 20:28 48.82523 1.14683 37010 ft 444 kts 245°
2026-05-06 20:29 48.79882 1.06211 37011 ft 444 kts 245°
2026-05-06 20:29 48.77251 0.97788 37016 ft 444 kts 245°
2026-05-06 20:30 48.73015 0.85295 37011 ft 445 kts 239°
2026-05-06 20:31 48.69768 0.77295 37017 ft 446 kts 239°
2026-05-06 20:31 48.66529 0.69290 37021 ft 446 kts 239°
2026-05-06 20:32 48.63285 0.61306 37012 ft 446 kts 239°
2026-05-06 20:32 48.60047 0.53374 37014 ft 445 kts 239°
2026-05-06 20:33 48.56785 0.45426 37016 ft 445 kts 239°
2026-05-06 20:33 48.53519 0.37474 37019 ft 445 kts 239°
2026-05-06 20:34 48.50253 0.29534 37023 ft 445 kts 239°
2026-05-06 20:34 48.46982 0.21600 37018 ft 445 kts 239°
2026-05-06 20:35 48.43711 0.13688 37017 ft 445 kts 239°
2026-05-06 20:35 48.40447 0.05828 37019 ft 445 kts 239°
2026-05-06 20:36 48.37158 -0.02068 37017 ft 445 kts 239°
2026-05-06 20:36 48.33699 -0.09819 37025 ft 446 kts 235°
2026-05-06 20:37 48.29954 -0.17250 37024 ft 446 kts 233°
2026-05-06 20:37 48.26161 -0.24620 37024 ft 446 kts 234°
2026-05-06 20:38 48.22398 -0.32012 37014 ft 445 kts 233°
2026-05-06 20:38 48.18655 -0.39346 37010 ft 445 kts 233°
2026-05-06 20:39 48.14885 -0.46711 37020 ft 445 kts 233°
2026-05-06 20:39 48.11106 -0.54068 37011 ft 446 kts 233°
2026-05-06 20:40 48.07321 -0.61416 37014 ft 446 kts 233°
2026-05-06 20:40 48.03539 -0.68753 37010 ft 445 kts 233°
2026-05-06 20:41 47.99754 -0.76073 37008 ft 445 kts 233°
2026-05-06 20:41 47.95964 -0.83381 37002 ft 445 kts 233°
2026-05-06 20:42 47.92189 -0.90633 37008 ft 444 kts 233°
2026-05-06 20:42 47.88388 -0.97900 37009 ft 444 kts 233°
2026-05-06 20:43 47.84595 -1.05154 37009 ft 444 kts 233°
2026-05-06 20:43 47.80798 -1.12408 37005 ft 444 kts 233°
2026-05-06 20:44 47.76990 -1.19642 36995 ft 444 kts 233°
2026-05-06 20:44 47.73176 -1.26871 37001 ft 444 kts 233°
2026-05-06 20:45 47.69360 -1.34091 37009 ft 444 kts 233°
2026-05-06 20:45 47.65566 -1.41242 37013 ft 444 kts 233°
2026-05-06 20:46 47.61746 -1.48421 37006 ft 443 kts 233°
2026-05-06 20:46 47.57850 -1.55510 36992 ft 444 kts 230°
2026-05-06 20:47 47.53718 -1.62296 36988 ft 444 kts 229°
2026-05-06 20:47 47.49528 -1.68992 36992 ft 443 kts 229°
2026-05-06 20:48 47.45371 -1.75723 36997 ft 443 kts 229°
2026-05-06 20:48 47.41249 -1.82484 37000 ft 443 kts 229°
2026-05-06 20:49 47.37127 -1.89238 37007 ft 442 kts 229°
2026-05-06 20:49 47.32445 -1.95108 37001 ft 444 kts 212°
2026-05-06 20:50 47.27144 -1.99816 36997 ft 445 kts 212°
2026-05-06 20:50 47.21854 -2.04548 36996 ft 445 kts 213°
2026-05-06 20:51 47.16600 -2.09242 36995 ft 445 kts 213°
2026-05-06 20:51 47.11303 -2.13959 36997 ft 445 kts 213°
2026-05-06 20:52 47.05997 -2.18662 37005 ft 445 kts 212°
2026-05-06 20:52 47.00690 -2.23358 37015 ft 445 kts 212°
2026-05-06 20:53 46.95389 -2.28042 37009 ft 445 kts 212°
2026-05-06 20:53 46.90080 -2.32721 37014 ft 445 kts 212°
2026-05-06 20:54 46.85670 -2.36600 37013 ft 445 kts 212°
2026-05-06 20:54 46.80363 -2.41259 37015 ft 445 kts 212°
2026-05-06 20:55 46.75052 -2.45913 37014 ft 445 kts 212°
2026-05-06 20:55 46.69741 -2.50549 37019 ft 445 kts 212°
2026-05-06 20:56 46.64436 -2.55186 37016 ft 445 kts 212°
2026-05-06 20:56 46.59124 -2.59816 37026 ft 445 kts 212°
2026-05-06 20:57 46.53816 -2.64427 37017 ft 445 kts 212°
2026-05-06 20:57 46.48534 -2.69010 37023 ft 445 kts 212°
2026-05-06 20:58 46.43215 -2.73607 37025 ft 445 kts 212°
2026-05-06 20:58 46.37897 -2.78187 37026 ft 445 kts 212°
2026-05-06 20:59 46.32579 -2.82768 37024 ft 445 kts 212°
2026-05-06 20:59 46.27263 -2.87367 37027 ft 444 kts 215°
2026-05-06 21:00 46.22481 -2.92946 37029 ft 442 kts 221°
2026-05-06 21:00 46.17791 -2.98683 37029 ft 442 kts 221°
2026-05-06 21:01 46.13101 -3.04404 37034 ft 442 kts 221°
2026-05-06 21:01 46.08434 -3.10073 37027 ft 442 kts 221°
2026-05-06 21:02 46.03730 -3.15761 37030 ft 441 kts 221°
2026-05-06 21:02 45.99032 -3.21437 37031 ft 441 kts 221°
2026-05-06 21:03 45.94334 -3.27124 37031 ft 441 kts 221°
2026-05-06 21:03 45.89636 -3.32793 37030 ft 441 kts 221°
2026-05-06 21:04 45.84927 -3.38442 37034 ft 441 kts 221°
2026-05-06 21:04 45.80219 -3.44075 37035 ft 441 kts 221°
2026-05-06 21:05 45.75515 -3.49713 37035 ft 441 kts 221°
2026-05-06 21:05 45.70809 -3.55344 37027 ft 441 kts 221°
2026-05-06 21:06 45.66102 -3.60943 37031 ft 440 kts 221°
2026-05-06 21:06 45.61392 -3.66539 37032 ft 440 kts 221°
2026-05-06 21:07 45.56673 -3.72127 37033 ft 440 kts 221°
2026-05-06 21:07 45.51965 -3.77706 37035 ft 440 kts 221°
2026-05-06 21:08 45.47252 -3.83280 37036 ft 440 kts 221°
2026-05-06 21:08 45.42529 -3.88829 37045 ft 440 kts 220°
2026-05-06 21:09 45.37836 -3.94336 37041 ft 440 kts 220°
2026-05-06 21:09 45.33112 -3.99867 37042 ft 440 kts 220°
2026-05-06 21:10 45.28393 -4.05397 37038 ft 440 kts 220°
2026-05-06 21:10 45.23675 -4.10910 37043 ft 439 kts 220°
2026-05-06 21:11 45.18955 -4.16412 37044 ft 439 kts 220°
2026-05-06 21:11 45.14233 -4.21902 37046 ft 439 kts 220°
2026-05-06 21:12 45.09504 -4.27385 37039 ft 439 kts 220°
2026-05-06 21:12 45.04805 -4.32820 37044 ft 439 kts 220°
2026-05-06 21:13 45.00072 -4.38274 37045 ft 438 kts 220°
2026-05-06 21:13 44.95340 -4.43703 37045 ft 438 kts 220°
2026-05-06 21:14 44.90609 -4.49148 37043 ft 438 kts 220°
2026-05-06 21:14 44.85882 -4.54583 37040 ft 438 kts 220°
2026-05-06 21:15 44.81143 -4.59998 37046 ft 438 kts 220°
2026-05-06 21:15 44.76403 -4.65411 37050 ft 438 kts 220°
2026-05-06 21:16 44.71663 -4.70809 37050 ft 438 kts 220°
2026-05-06 21:16 44.66925 -4.76197 37046 ft 438 kts 220°
2026-05-06 21:17 44.62215 -4.81538 37046 ft 438 kts 220°
2026-05-06 21:17 44.57470 -4.86899 37047 ft 438 kts 220°
2026-05-06 21:18 44.52724 -4.92262 37048 ft 438 kts 220°
2026-05-06 21:18 44.47752 -4.97188 37045 ft 438 kts 213°
2026-05-06 21:19 44.42578 -5.01714 37044 ft 438 kts 213°
2026-05-06 21:19 44.37402 -5.06225 37043 ft 438 kts 213°
2026-05-06 21:20 44.32221 -5.10740 37038 ft 438 kts 213°
2026-05-06 21:20 44.27052 -5.15236 37038 ft 438 kts 213°
2026-05-06 21:21 44.21915 -5.19699 37046 ft 438 kts 213°
2026-05-06 21:21 44.16747 -5.24178 37047 ft 437 kts 213°
2026-05-06 21:22 44.11571 -5.28644 37043 ft 437 kts 213°
2026-05-06 21:22 44.06402 -5.33103 37044 ft 437 kts 213°
2026-05-06 21:23 44.01228 -5.37564 37047 ft 437 kts 213°
2026-05-06 21:23 43.96050 -5.42010 37045 ft 437 kts 213°
2026-05-06 21:24 43.90870 -5.46446 37043 ft 437 kts 213°
2026-05-06 21:24 43.85693 -5.50867 37036 ft 437 kts 213°
2026-05-06 21:25 43.80525 -5.55276 37037 ft 436 kts 213°
2026-05-06 21:25 43.75382 -5.59651 37039 ft 436 kts 212°
2026-05-06 21:26 43.70212 -5.64038 37039 ft 436 kts 212°
2026-05-06 21:26 43.65045 -5.68418 37031 ft 435 kts 213°
2026-05-06 21:27 43.59880 -5.72796 37040 ft 435 kts 212°
2026-05-06 21:27 43.54724 -5.77157 37041 ft 435 kts 212°
2026-05-06 21:28 43.49560 -5.81518 37041 ft 435 kts 212°
2026-05-06 21:28 43.44395 -5.85868 37035 ft 435 kts 212°
2026-05-06 21:29 43.39234 -5.90199 37038 ft 434 kts 212°
2026-05-06 21:29 43.34079 -5.94520 37036 ft 434 kts 212°
2026-05-06 21:30 43.28959 -5.98798 37028 ft 433 kts 212°
2026-05-06 21:30 43.23808 -6.03085 37026 ft 433 kts 212°
2026-05-06 21:31 43.18668 -6.07369 37031 ft 432 kts 212°
2026-05-06 21:31 43.13520 -6.11653 37031 ft 432 kts 212°
2026-05-06 21:32 43.08380 -6.15918 37030 ft 432 kts 212°
2026-05-06 21:32 43.00666 -6.22300 37023 ft 432 kts 212°
2026-05-06 21:33 42.95559 -6.26515 37016 ft 431 kts 212°
2026-05-06 21:33 42.90423 -6.30746 37016 ft 431 kts 212°
2026-05-06 21:34 42.85291 -6.34969 37010 ft 431 kts 212°
2026-05-06 21:34 42.80155 -6.39181 37000 ft 430 kts 212°
2026-05-06 21:35 42.75026 -6.43372 37005 ft 429 kts 212°
2026-05-06 21:35 42.69909 -6.47556 37015 ft 429 kts 212°
2026-05-06 21:36 42.64786 -6.51740 36998 ft 429 kts 212°
2026-05-06 21:36 42.59668 -6.55911 36989 ft 429 kts 212°
2026-05-06 21:37 42.54539 -6.60074 36990 ft 429 kts 212°
2026-05-06 21:37 42.49412 -6.64233 36987 ft 430 kts 212°
2026-05-06 21:38 42.44283 -6.68391 36986 ft 430 kts 212°
2026-05-06 21:38 42.39185 -6.72513 36986 ft 429 kts 212°
2026-05-06 21:39 42.34053 -6.76652 36986 ft 429 kts 212°
2026-05-06 21:39 42.28916 -6.80783 36982 ft 429 kts 212°
2026-05-06 21:40 42.23779 -6.84899 36998 ft 429 kts 212°
2026-05-06 21:40 42.18635 -6.89020 36979 ft 430 kts 212°
2026-05-06 21:41 42.13487 -6.93134 36984 ft 430 kts 212°
2026-05-06 21:41 42.08340 -6.97247 36982 ft 430 kts 212°
2026-05-06 21:42 42.04060 -7.00664 36984 ft 430 kts 212°
2026-05-06 21:42 41.98907 -7.04778 36983 ft 430 kts 212°
2026-05-06 21:43 41.93757 -7.08873 36976 ft 430 kts 212°
2026-05-06 21:43 41.88605 -7.12950 36977 ft 430 kts 212°
2026-05-06 21:44 41.83448 -7.17023 36977 ft 430 kts 212°
2026-05-06 21:44 41.78299 -7.21098 36966 ft 430 kts 212°
2026-05-06 21:45 41.73147 -7.25165 36954 ft 430 kts 211°
2026-05-06 21:45 41.67972 -7.29191 36947 ft 430 kts 211°
2026-05-06 21:46 41.62786 -7.33199 36958 ft 431 kts 211°
2026-05-06 21:46 41.57635 -7.37183 36951 ft 431 kts 211°
2026-05-06 21:47 41.52449 -7.41196 36943 ft 431 kts 211°
2026-05-06 21:47 41.47269 -7.45204 36958 ft 430 kts 211°
2026-05-06 21:48 41.42082 -7.49193 36955 ft 430 kts 211°
2026-05-06 21:48 41.36903 -7.53172 36959 ft 430 kts 211°
2026-05-06 21:49 41.31724 -7.57155 36957 ft 430 kts 211°
2026-05-06 21:49 41.26549 -7.61126 36956 ft 430 kts 211°
2026-05-06 21:50 41.21360 -7.65093 36948 ft 430 kts 211°
2026-05-06 21:50 41.16162 -7.69060 36946 ft 431 kts 211°
2026-05-06 21:51 41.10992 -7.73004 36942 ft 431 kts 211°
2026-05-06 21:51 41.05785 -7.76965 36937 ft 431 kts 211°
2026-05-06 21:52 41.00573 -7.80917 36949 ft 431 kts 211°
2026-05-06 21:52 40.95366 -7.84867 36951 ft 432 kts 211°
2026-05-06 21:53 40.90154 -7.88814 36953 ft 432 kts 211°
2026-05-06 21:53 40.84931 -7.92760 36950 ft 432 kts 211°
2026-05-06 21:54 40.79722 -7.96691 36959 ft 431 kts 211°
2026-05-06 21:54 40.74505 -8.00623 36961 ft 431 kts 211°
2026-05-06 21:55 40.69291 -8.04530 36960 ft 431 kts 211°
2026-05-06 21:55 40.64110 -8.08407 36962 ft 431 kts 211°
2026-05-06 21:56 40.58907 -8.12305 36953 ft 430 kts 211°
2026-05-06 21:56 40.53698 -8.16197 36959 ft 430 kts 211°
2026-05-06 21:57 40.48587 -8.20009 36646 ft 417 kts 211°
2026-05-06 21:57 40.46038 -8.21905 35947 ft 424 kts 211°
2026-05-06 21:57 40.43470 -8.23811 35302 ft 422 kts 211°
2026-05-06 21:58 40.40924 -8.25701 34467 ft 419 kts 211°
2026-05-06 21:58 40.38383 -8.27588 33733 ft 419 kts 211°
2026-05-06 21:58 40.35852 -8.29466 33041 ft 417 kts 210°
2026-05-06 21:58 40.33327 -8.31342 32268 ft 418 kts 210°
2026-05-06 21:59 40.30824 -8.33197 31467 ft 419 kts 210°
2026-05-06 21:59 40.28246 -8.35105 30636 ft 422 kts 210°
2026-05-06 21:59 40.25694 -8.36990 29917 ft 421 kts 210°
2026-05-06 21:59 40.23169 -8.38854 28798 ft 425 kts 210°
2026-05-06 22:00 40.20579 -8.40770 27742 ft 429 kts 210°
2026-05-06 22:00 40.18022 -8.42657 27502 ft 415 kts 209°
2026-05-06 22:00 40.15541 -8.44484 27113 ft 405 kts 210°
2026-05-06 22:00 40.13092 -8.46285 26460 ft 403 kts 209°
2026-05-06 22:01 40.10676 -8.48061 26117 ft 394 kts 209°
2026-05-06 22:01 40.08302 -8.49804 25752 ft 388 kts 209°
2026-05-06 22:01 40.05942 -8.51496 25507 ft 386 kts 205°
2026-05-06 22:01 40.03431 -8.52717 25255 ft 386 kts 195°
2026-05-06 22:02 40.00773 -8.53290 25031 ft 388 kts 185°
2026-05-06 22:02 39.98097 -8.53679 24938 ft 387 kts 197°
2026-05-06 22:02 39.95672 -8.55226 24973 ft 395 kts 217°
2026-05-06 22:02 39.93554 -8.57558 24959 ft 401 kts 220°
2026-05-06 22:03 39.91423 -8.59899 24969 ft 401 kts 219°
2026-05-06 22:03 39.89256 -8.62201 24973 ft 402 kts 218°
2026-05-06 22:03 39.87072 -8.64470 24975 ft 402 kts 218°
2026-05-06 22:03 39.84877 -8.66727 24975 ft 402 kts 218°
2026-05-06 22:04 39.82681 -8.68906 24971 ft 402 kts 216°
2026-05-06 22:04 39.80412 -8.71029 24969 ft 402 kts 215°
2026-05-06 22:04 39.78118 -8.73103 24969 ft 402 kts 214°
2026-05-06 22:04 39.75812 -8.75163 24976 ft 402 kts 214°
2026-05-06 22:05 39.73509 -8.77226 24976 ft 402 kts 214°
2026-05-06 22:05 39.71215 -8.79300 24963 ft 402 kts 215°
2026-05-06 22:05 39.68923 -8.81391 24961 ft 402 kts 215°
2026-05-06 22:05 39.66645 -8.83483 24970 ft 401 kts 215°
2026-05-06 22:06 39.64368 -8.85579 24978 ft 401 kts 215°
2026-05-06 22:06 39.62091 -8.87673 24979 ft 401 kts 215°
2026-05-06 22:06 39.59818 -8.89762 24978 ft 401 kts 215°
2026-05-06 22:06 39.57542 -8.91850 24975 ft 400 kts 215°
2026-05-06 22:07 39.55269 -8.93933 24968 ft 400 kts 215°
2026-05-06 22:07 39.52989 -8.96017 24967 ft 400 kts 215°
2026-05-06 22:07 39.50589 -8.97817 24961 ft 400 kts 201°
2026-05-06 22:07 39.47951 -8.98977 24945 ft 399 kts 201°
2026-05-06 22:08 39.45436 -9.00378 24687 ft 387 kts 206°
2026-05-06 22:08 39.43100 -9.01953 24456 ft 381 kts 209°
2026-05-06 22:08 39.40803 -9.03618 24160 ft 375 kts 210°
2026-05-06 22:08 39.38535 -9.05259 23671 ft 372 kts 209°
2026-05-06 22:09 39.36270 -9.06838 23140 ft 369 kts 208°
2026-05-06 22:09 39.34004 -9.08353 22671 ft 364 kts 207°
2026-05-06 22:09 39.31752 -9.09811 22229 ft 359 kts 207°
2026-05-06 22:09 39.29527 -9.11228 21800 ft 355 kts 207°
2026-05-06 22:10 39.27320 -9.12624 21385 ft 351 kts 207°
2026-05-06 22:10 39.25139 -9.14004 20976 ft 347 kts 207°
2026-05-06 22:10 39.22983 -9.15370 20580 ft 343 kts 207°
2026-05-06 22:10 39.20848 -9.16725 20163 ft 340 kts 207°
2026-05-06 22:11 39.18735 -9.18066 19757 ft 337 kts 207°
2026-05-06 22:11 39.16640 -9.19398 19353 ft 335 kts 207°
2026-05-06 22:11 39.14559 -9.20727 18937 ft 333 kts 207°
2026-05-06 22:11 39.12488 -9.22052 18520 ft 332 kts 207°
2026-05-06 22:12 39.10425 -9.23370 18088 ft 331 kts 207°
2026-05-06 22:12 39.08367 -9.24681 17633 ft 329 kts 207°
2026-05-06 22:12 39.06320 -9.25985 17198 ft 327 kts 207°
2026-05-06 22:12 39.04284 -9.27279 16774 ft 326 kts 207°
2026-05-06 22:13 39.02238 -9.28576 16041 ft 333 kts 207°
2026-05-06 22:13 39.00137 -9.29907 15427 ft 338 kts 207°
2026-05-06 22:13 38.98033 -9.31238 14983 ft 336 kts 207°
2026-05-06 22:13 38.95945 -9.32555 14659 ft 334 kts 207°
2026-05-06 22:14 38.93859 -9.33875 14314 ft 333 kts 207°
2026-05-06 22:14 38.91782 -9.35192 13869 ft 333 kts 208°
2026-05-06 22:14 38.89735 -9.36489 13416 ft 331 kts 208°
2026-05-06 22:14 38.87675 -9.37789 12973 ft 329 kts 207°
2026-05-06 22:15 38.85600 -9.39097 12584 ft 325 kts 207°
2026-05-06 22:15 38.83609 -9.40350 12257 ft 321 kts 207°
2026-05-06 22:15 38.81625 -9.41597 11998 ft 314 kts 207°
2026-05-06 22:15 38.79685 -9.42809 11732 ft 305 kts 206°
2026-05-06 22:16 38.77823 -9.43968 11390 ft 291 kts 207°
2026-05-06 22:16 38.76013 -9.45093 10822 ft 288 kts 206°
2026-05-06 22:16 38.74216 -9.46211 10393 ft 287 kts 206°
2026-05-06 22:16 38.72427 -9.47322 10042 ft 285 kts 206°
2026-05-06 22:17 38.70638 -9.48430 9677 ft 285 kts 206°
2026-05-06 22:17 38.68857 -9.49533 9294 ft 283 kts 206°
2026-05-06 22:17 38.67086 -9.50628 8921 ft 282 kts 206°
2026-05-06 22:17 38.65334 -9.51714 8663 ft 276 kts 206°
2026-05-06 22:18 38.63635 -9.52768 8468 ft 266 kts 206°
2026-05-06 22:18 38.62013 -9.53775 8226 ft 251 kts 206°
2026-05-06 22:18 38.60480 -9.54669 8006 ft 236 kts 199°
2026-05-06 22:18 38.58887 -9.55066 7567 ft 232 kts 182°
2026-05-06 22:19 38.57287 -9.54889 7096 ft 230 kts 168°
2026-05-06 22:19 38.55745 -9.54473 6632 ft 229 kts 165°
2026-05-06 22:19 38.54388 -9.53479 6152 ft 227 kts 131°
2026-05-06 22:19 38.53686 -9.51709 5636 ft 226 kts 98°
2026-05-06 22:20 38.53546 -9.49704 5066 ft 228 kts 90°
2026-05-06 22:20 38.53478 -9.47685 4557 ft 228 kts 88°
2026-05-06 22:20 38.53379 -9.45655 4265 ft 228 kts 90°
2026-05-06 22:20 38.53310 -9.43654 4136 ft 221 kts 86°
2026-05-06 22:21 38.53425 -9.41745 4026 ft 211 kts 80°
2026-05-06 22:21 38.53597 -9.39932 4000 ft 200 kts 77°
2026-05-06 22:21 38.53888 -9.38230 4001 ft 194 kts 71°
2026-05-06 22:21 38.54258 -9.36578 4007 ft 193 kts 70°
2026-05-06 22:22 38.54645 -9.34942 4025 ft 193 kts 68°
2026-05-06 22:22 38.55031 -9.33301 4011 ft 192 kts 70°
2026-05-06 22:22 38.55406 -9.31664 4000 ft 192 kts 70°
2026-05-06 22:22 38.55782 -9.30043 4002 ft 192 kts 70°
2026-05-06 22:23 38.56176 -9.28405 4005 ft 193 kts 69°
2026-05-06 22:23 38.56557 -9.26771 4003 ft 192 kts 68°
2026-05-06 22:23 38.57150 -9.25279 4004 ft 187 kts 46°
2026-05-06 22:23 38.58140 -9.24260 4006 ft 182 kts 22°
2026-05-06 22:24 38.59304 -9.23629 3945 ft 180 kts 19°
2026-05-06 22:24 38.60436 -9.23029 3775 ft 173 kts 19°
2026-05-06 22:24 38.61531 -9.22447 3565 ft 168 kts 18°
2026-05-06 22:24 38.62604 -9.21877 3349 ft 165 kts 19°
2026-05-06 22:25 38.63656 -9.21317 3132 ft 162 kts 19°
2026-05-06 22:25 38.64690 -9.20766 2914 ft 160 kts 18°
2026-05-06 22:25 38.65711 -9.20223 2708 ft 158 kts 19°
2026-05-06 22:25 38.66699 -9.19696 2512 ft 147 kts 19°
2026-05-06 22:26 38.67614 -9.19208 2317 ft 139 kts 18°
2026-05-06 22:26 38.68495 -9.18738 2119 ft 136 kts 18°
2026-05-06 22:26 38.69368 -9.18274 1927 ft 135 kts 18°
2026-05-06 22:26 38.70226 -9.17816 1758 ft 133 kts 18°
2026-05-06 22:27 38.71090 -9.17356 1559 ft 134 kts 18°
2026-05-06 22:27 38.71951 -9.16896 1395 ft 134 kts 18°
2026-05-06 22:27 38.72807 -9.16440 1200 ft 135 kts 19°
2026-05-06 22:27 38.73678 -9.15975 1013 ft 134 kts 19°
2026-05-06 22:28 38.74520 -9.15525 829 ft 134 kts 19°
2026-05-06 22:28 38.75395 -9.15057 661 ft 137 kts 19°
2026-05-06 22:28 38.76281 -9.14584 480 ft 137 kts 17°
2026-05-06 22:28 38.77142 -9.14124 355 ft 124 kts 21°
2026-05-06 22:29 38.77794 -9.13775 351 ft 77 kts 22°
2026-05-06 22:29 38.78111 -9.13606 352 ft 24 kts 22°
2026-05-06 22:29 38.78268 -9.13525 353 ft 24 kts 21°
2026-05-06 22:29 38.78422 -9.13437 349 ft 24 kts 23°
2026-05-06 22:30 38.78499 -9.13395 350 ft 12 kts 24°
2026-05-06 22:30 38.78534 -9.13308 346 ft 11 kts 98°
2026-05-06 22:30 38.78492 -9.13239 350 ft 9 kts 149°
2026-05-06 22:30 38.78439 -9.13218 353 ft 7 kts 165°
2026-05-06 22:31 38.78395 -9.13225 350 ft 7 kts 194°
2026-05-06 22:31 38.78356 -9.13245 355 ft 11 kts 205°
2026-05-06 22:31 38.78289 -9.13278 352 ft 10 kts 196°
2026-05-06 22:31 38.78230 -9.13303 356 ft 8 kts 201°
2026-05-06 22:32 38.78171 -9.13333 355 ft 11 kts 202°
2026-05-06 22:32 38.78075 -9.13382 352 ft 10 kts 199°
2026-05-06 22:32 38.78009 -9.13401 347 ft 9 kts 192°
2026-05-06 22:32 38.77968 -9.13400 347 ft 9 kts 170°
2026-05-06 22:33 38.77855 -9.13371 347 ft 23 kts 168°
2026-05-06 22:33 38.77704 -9.13332 347 ft 21 kts 172°
2026-05-06 22:33 38.77597 -9.13312 351 ft 14 kts 172°
2026-05-06 22:33 38.77508 -9.13302 353 ft 10 kts 169°
2026-05-06 22:34 38.77479 -9.13251 352 ft 7 kts 83°
2026-05-06 22:34 38.77486 -9.13194 347 ft 6 kts 80°
2026-05-06 22:34 38.77490 -9.13165 347 ft 0 kts 80°
2026-05-06 22:34 38.77491 -9.13156 347 ft 0 kts 80°